DMSP 5D-2 F13 DEB, 42313

Orbit data source: Space-Track

DMSP 5D-2 F13 DEB, 42313 is space debris in SSO originally from a launch on Fri, 24 Mar 1995 UTC launched from the Air Force Western Test Range (AFWTR). Debris objects in space refer to the collection of defunct objects orbiting the Earth. Examples of debris include non-operational satellites, rocket bodies, and fragments generated from explosions, collisions, or faulty payload assembly.

Loading next visibility...
DMSP 5D-2 F13 DEB details
Identifier
42313, 1995-015JF
Orbit
SSO
Last TLE update6 hours ago
Origin
Flag of USUSAF SMC (US)
ManufacturerUnknown
MissionSpacecraft
Bus & MotorUnknown
MassUnknown
Launch date (UTC)
1995-03-24 (30 years ago)
Launch vehicleUnknown
Launch site
Air Force Western Test Range (AFWTR)
Object type
Payload
Rocket body
Debris
Shape & HBRUnknown
Radar Cross SectionSmall (<0.1 m²)

Expand to show TLE details & history

TLE from 6 hours ago
0 DMSP 5D-2 F13 DEB
1 42313U 95015JF  24348.10493369  .00179883  00000-0  18252-1 0  9994
2 42313  98.5366 302.6879 0031127  45.6687 314.7072 14.89525697497625
Epoch: 2024-12-13T02:31Z
Definitive object data (Epoch: 2024-12-13T02:31:06.27Z)
Latitude-0.00002°
Longitude-177.36392°
Altitude587.183 km
Speed7.575 km/s
True Right ascension20h 10m 45s
True Declination0° 00' 00"
Sunlit
Object was in daylight at TLE epoch
Visualization TLE readout
Latitude-58.96618°
Longitude-11.46541°
Altitude642.885 km
Speed7.524 km/s
Apparent Right ascension18h 02m 20s
Apparent Declination-82° 32' 09"
Sunlit
Object is in daylight
Visualization observer readout
Local Sidereal Time06:55:15
Azimuth177.494° S
Elevation-47.157°
Doppler factor1
Orbital elements
Apogee altitude618.184 km
Perigee altitude574.764 km
Semi-major axis6,974.611 km
Eccentricity0.0031127
Inclination98.5366°
RAAN302.6879°
Arg. of periapsis45.6687°
True anomaly314.453°
Mean anomaly314.7072°
Eccentric anomaly314.58017°
Mean motion3.72617 °/min
BSTAR0.018252
Orbital period96.61 mins
Loading maneuver chart data...

DMSP 5D-2 F13 DEB Visibility forecast

Observer location: undefined°, undefined

Span
Click to sort rows by Start time (UTC) header in descending order
Start Az.
Max El. time (UTC)
Max El. Az.
Max El.
End time (UTC)
End Az.
6 mins2024-12-13 09:32:39.603Z38.264° NE2024-12-13 09:35:39.603Z97.813° ESE29.341°2024-12-13 09:38:39.603Z158.256° S
4 mins2024-12-13 11:09:39.603Z319.305° NNW2024-12-13 11:10:39.603Z301.425° NW18.149°2024-12-13 11:13:39.603Z251.957° W
5 mins2024-12-13 20:24:39.603Z108.447° ESE2024-12-13 20:26:39.603Z66.543° ENE23.112°2024-12-13 20:29:39.603Z15.058° NNE
4 mins2024-12-13 22:00:39.603Z232.331° WSW2024-12-13 22:01:39.603Z252.747° W21.44°2024-12-13 22:04:39.603Z310.347° NW
|